Regional Weather Roundup
Issued by NWS

Home | Current Version | Previous Version | Graphics & Text | Print | Product List | Glossary On
Versions: 1 2 3 4 5 6 7 8 9 10 11 12 13 14 15 16 17 18 19 20 21 22 23 24 25 26 27 28 29 30 31 32 33 34 35 36 37 38 39 40 41 42 43 44 45 46 47 48 49 50
564
ASUS44 KJAN 202310
RWRMS

MISSISSIPPI HOURLY WEATHER ROUNDUP
NATIONAL WEATHER SERVICE JACKSON MS
500 PM CST SAT DEC 20 2014

NOTE: "FAIR: INDICATES FEW OR NO CLOUDS BELOW 12,000 FEET WITH NO
SIGNIFICANT WEATHER AND/OR OBSTRUCTIONS TO VISIBILITY.

MSZ001>002-007>008-010>013-018>021-025>028-034>036-210000-
NORTHWEST MISSISSIPPI

CITY           SKY/WX    TMP DP  RH WIND       PRES   REMARKS
CLARKSDALE     FAIR      46  39  76 N8        30.23S
CLEVELAND      FAIR      49  44  83 N6        30.20F
GREENWOOD      CLEAR     49  38  65 N7        30.19R
GREENVILLE     CLEAR     50  40  68 N7        30.20R
GRENADA        FAIR      48  37  66 CALM      30.21R
OLIVE BRANCH   PTCLDY    43  36  75 N6        30.22R
OXFORD         FAIR      46  34  61 CALM      30.22R
TUNICA         CLEAR     43  36  75 N7        30.24R
$$

MSZ003>006-009-014>017-022>024-029>033-037>039-210000-
NORTHEAST MISSISSIPPI

CITY           SKY/WX    TMP DP  RH WIND       PRES   REMARKS
COLUMBUS AFB   CLEAR     50  35  57 N6        30.18S
CORINTH        FAIR      46  30  53 NE6       30.20S
GOLDN TRIANGLE CLEAR     52  36  54 N5        30.17F
STARKVILLE     FAIR      50  37  62 CALM      30.19R
TUPELO         CLEAR     48  33  56 E3        30.20R
$$

MSZ040-058-210000-
CENTRAL MISSISSIPPI

CITY           SKY/WX    TMP DP  RH WIND       PRES   REMARKS
JACKSON INTL   PTCLDY    50  41  71 NE3       30.16S
JACKSON HAWKNS CLEAR     53  41  63 NE3       30.16S
MERIDIAN KEY   CLEAR     49  40  71 N8        30.17R
MERIDIAN NAS   CLEAR     49  40  71 NE3       30.18R
RAYMOND        FAIR      52  48  87 CALM      30.16S
VICKSBURG      CLEAR     51  40  65 N6        30.17R
$$

MSZ059>079-210000-
SOUTH MISSISSIPPI

CITY           SKY/WX    TMP DP  RH WIND       PRES   REMARKS
HATTIESBURG    CLOUDY    53  46  77 NE7       30.16R
MCCOMB         CLOUDY    51  44  77 CALM      30.14S
NATCHEZ        CLEAR     54  43  66 N7        30.14F
PINE BELT      CLOUDY    52  43  71 NE7       30.16R
$$

MSZ080>082-210000-
COASTAL MISSISSIPPI

CITY           SKY/WX    TMP DP  RH WIND       PRES   REMARKS
BAY ST LOUIS   CLOUDY    52  45  76 N9        30.13R
BILOXI         CLOUDY    51  49  90 NE9       30.12R
PASCAGOULA     CLOUDY    51  48  89 N9        30.12R
GULFPORT       CLOUDY    52  47  83 N8G16     30.12R
$$



USA.gov is the U.S. government's official web portal to all federal, state and local government web resources and services.